Location: Newark
(41.6500°N, 71.4833°W)
Time: 22:09:26
(UTC+00:00)

ISS - Visible Passes

Search period start: 27 January 2021 00:00
Search period end: 06 February 2021 00:00
Orbit: 418 x 421 km, 51.6° (Epoch: 28 January)

Date Brightness Start Highest point End Pass type
(mag) Time Alt. Az. Time Alt. Az. Time Alt. Az.
27 Jan -1.0 00:02:45 10° NW 00:03:31 13° NNW 00:03:31 13° NNW visible
27 Jan -1.6 23:15:14 10° NW 23:17:17 15° N 23:18:08 14° NNE visible
28 Jan -1.5 22:27:34 10° NW 22:29:42 16° N 22:31:51 10° NNE visible
29 Jan -1.1 00:04:56 10° NW 00:05:44 14° NNW 00:05:44 14° NNW visible
29 Jan -1.8 23:17:38 10° NNW 23:19:55 17° N 23:20:23 16° NNE visible
30 Jan -1.6 22:30:12 10° NW 22:32:19 15° N 22:34:26 10° NE visible
31 Jan -1.4 00:06:51 10° NW 00:08:02 18° NNW 00:08:02 18° NNW visible
31 Jan -2.3 23:19:35 10° NW 23:22:25 24° NNE 23:22:46 23° NNE visible
01 Feb -2.0 22:32:18 10° NW 22:34:50 19° NNE 22:37:23 10° ENE visible
02 Feb -2.0 00:08:44 10° NW 00:10:35 29° NW 00:10:35 29° NW visible
02 Feb -3.3 23:21:25 10° NW 23:24:41 45° NNE 23:25:30 36° ENE visible
03 Feb -2.8 22:34:07 10° NW 22:37:11 31° NNE 22:40:15 10° E visible
04 Feb -2.3 00:10:52 10° WNW 00:13:34 36° WSW 00:13:34 36° WSW visible
04 Feb -3.5 23:23:20 10° WNW 23:26:42 68° SW 23:28:49 21° SE visible
05 Feb -3.8 22:35:55 10° NW 22:39:18 72° NE 22:42:40 10° ESE visible
